WZZ7752 LCLK-EPWA

Flight info

Callsign WZZ7752
Flight time N/A
Altitude 38000
Route PHA M31 GENOS DCT PEDER M855 TOMBI UM855 AYT UQ23 OSVEL UL619 MAKOL DCT ARGES DCT KENIN DCT RAZEC DCT ORTEB DCT KONZI DCT LOGDA
Aircraft A20N/M-SDE2E3FGHIRWXY/LB1

Departure

Time N/A
Airport Larnaca International Airport (LCLK)

Arrival

Time 2026-05-05 16:44
Airport Warsaw Chopin Airport (EPWA)
Time Latitude Longitude Altitude Speed Heading
2026-05-05 16:12 49.81541 20.72355 37924 ft 398 kts 340°
2026-05-05 16:13 49.88909 20.68422 37900 ft 399 kts 340°
2026-05-05 16:13 49.94033 20.65679 37875 ft 399 kts 340°
2026-05-05 16:14 50.04422 20.60244 37829 ft 400 kts 343°
2026-05-05 16:15 50.15290 20.57746 37820 ft 403 kts 357°
2026-05-05 16:16 50.26490 20.58616 37821 ft 404 kts
2026-05-05 16:17 50.34806 20.59489 37480 ft 404 kts
2026-05-05 16:18 50.40319 20.60067 36675 ft 399 kts
2026-05-05 16:18 50.43084 20.60356 36147 ft 399 kts
2026-05-05 16:18 50.48585 20.60929 34977 ft 400 kts
2026-05-05 16:19 50.51310 20.61215 34402 ft 400 kts
2026-05-05 16:19 50.54015 20.61501 33840 ft 400 kts
2026-05-05 16:19 50.59568 20.62085 32494 ft 405 kts
2026-05-05 16:20 50.65194 20.62672 31026 ft 412 kts
2026-05-05 16:20 50.70943 20.63272 29470 ft 420 kts
2026-05-05 16:21 50.76735 20.63880 28290 ft 417 kts
2026-05-05 16:22 50.85278 20.64782 26734 ft 408 kts
2026-05-05 16:22 50.90863 20.65372 25734 ft 403 kts
2026-05-05 16:23 50.96378 20.65953 24736 ft 398 kts
2026-05-05 16:23 50.99130 20.66244 24240 ft 396 kts
2026-05-05 16:23 51.04552 20.66820 23278 ft 392 kts
2026-05-05 16:24 51.07213 20.67104 22808 ft 390 kts
2026-05-05 16:24 51.09913 20.67393 22334 ft 387 kts
2026-05-05 16:24 51.15171 20.67957 21417 ft 383 kts
2026-05-05 16:25 51.17821 20.68241 20956 ft 381 kts
2026-05-05 16:25 51.23035 20.68800 20049 ft 377 kts
2026-05-05 16:25 51.25648 20.69093 19596 ft 376 kts
2026-05-05 16:26 51.30741 20.70599 18701 ft 375 kts 14°
2026-05-05 16:26 51.35651 20.73164 17818 ft 372 kts 16°
2026-05-05 16:27 51.38099 20.74497 17377 ft 370 kts 16°
2026-05-05 16:27 51.40521 20.75810 16942 ft 368 kts 16°
2026-05-05 16:27 51.42937 20.77113 16508 ft 366 kts 16°
2026-05-05 16:27 51.45316 20.78394 16081 ft 364 kts 16°
2026-05-05 16:28 51.47709 20.79680 15651 ft 362 kts 17°
2026-05-05 16:28 51.50081 20.80956 15221 ft 360 kts 17°
2026-05-05 16:28 51.52446 20.82228 14796 ft 358 kts 17°
2026-05-05 16:28 51.54800 20.83497 14373 ft 356 kts 17°
2026-05-05 16:29 51.57136 20.84758 13956 ft 354 kts 17°
2026-05-05 16:29 51.59455 20.86012 13541 ft 352 kts 17°
2026-05-05 16:29 51.61762 20.87261 13128 ft 350 kts 17°
2026-05-05 16:29 51.64046 20.88500 12719 ft 348 kts 17°
2026-05-05 16:30 51.66342 20.89745 12308 ft 346 kts 17°
2026-05-05 16:30 51.68610 20.90976 11901 ft 344 kts 17°
2026-05-05 16:30 51.70861 20.92168 11580 ft 339 kts 17°
2026-05-05 16:30 51.73054 20.93313 11514 ft 324 kts 17°
2026-05-05 16:31 51.75138 20.94402 11449 ft 310 kts 17°
2026-05-05 16:31 51.77205 20.95152 11157 ft 304 kts 359°
2026-05-05 16:31 51.79239 20.94568 10825 ft 296 kts 335°
2026-05-05 16:31 51.81053 20.93141 10515 ft 292 kts 329°
2026-05-05 16:32 51.82838 20.91593 10192 ft 290 kts 329°
2026-05-05 16:32 51.84599 20.90075 9875 ft 288 kts 329°
2026-05-05 16:32 51.86370 20.88597 9550 ft 286 kts 330°
2026-05-05 16:32 51.88078 20.87171 9249 ft 284 kts 330°
2026-05-05 16:33 51.89813 20.85717 8943 ft 282 kts 330°
2026-05-05 16:33 51.91533 20.84275 8639 ft 280 kts 330°
2026-05-05 16:33 51.93262 20.82831 8337 ft 278 kts 330°
2026-05-05 16:33 51.94952 20.81422 8190 ft 269 kts 330°
2026-05-05 16:34 51.96603 20.80184 8128 ft 258 kts 343°
2026-05-05 16:34 51.98345 20.80216 8053 ft 256 kts 19°
2026-05-05 16:34 51.99829 20.81805 7766 ft 258 kts 53°
2026-05-05 16:34 52.00709 20.84271 7521 ft 255 kts 65°
2026-05-05 16:35 52.01467 20.86856 7262 ft 254 kts 65°
2026-05-05 16:35 52.02193 20.89469 6981 ft 253 kts 75°
2026-05-05 16:35 52.02244 20.92252 6678 ft 247 kts 110°
2026-05-05 16:35 52.01382 20.94524 6407 ft 239 kts 142°
2026-05-05 16:36 51.99998 20.95929 6167 ft 235 kts 155°
2026-05-05 16:36 51.98565 20.97130 5919 ft 234 kts 155°
2026-05-05 16:36 51.97130 20.98346 5666 ft 234 kts 154°
2026-05-05 16:36 51.95693 20.99583 5414 ft 234 kts 154°
2026-05-05 16:37 51.94268 21.00820 5166 ft 232 kts 153°
2026-05-05 16:37 51.92847 21.02066 4926 ft 232 kts 154°
2026-05-05 16:37 51.91444 21.03289 4930 ft 237 kts 154°
2026-05-05 16:37 51.89997 21.04540 4931 ft 238 kts 153°
2026-05-05 16:38 51.88703 21.06166 4910 ft 241 kts 126°
2026-05-05 16:38 51.88155 21.08710 4927 ft 246 kts 92°
2026-05-05 16:38 51.88565 21.11403 4936 ft 249 kts 64°
2026-05-05 16:38 51.89394 21.13882 4858 ft 249 kts 61°
2026-05-05 16:39 51.90365 21.16194 4581 ft 253 kts 40°
2026-05-05 16:39 51.91905 21.17338 4510 ft 246 kts
2026-05-05 16:39 51.93565 21.16888 4520 ft 244 kts 334°
2026-05-05 16:39 51.95064 21.15661 4525 ft 244 kts 329°
2026-05-05 16:40 51.96559 21.14276 4442 ft 246 kts 328°
2026-05-05 16:40 51.98031 21.12920 4199 ft 244 kts 329°
2026-05-05 16:40 51.99488 21.11618 3985 ft 231 kts 329°
2026-05-05 16:40 52.00878 21.10402 3494 ft 229 kts 329°
2026-05-05 16:41 52.02250 21.09211 3219 ft 217 kts 330°
2026-05-05 16:41 52.03557 21.08076 3020 ft 208 kts 329°
2026-05-05 16:41 52.04817 21.06979 2738 ft 203 kts 330°
2026-05-05 16:41 52.06014 21.05938 2478 ft 189 kts 329°
2026-05-05 16:42 52.07143 21.04954 2200 ft 179 kts 329°
2026-05-05 16:42 52.08200 21.04031 1951 ft 169 kts 329°
2026-05-05 16:42 52.09201 21.03158 1731 ft 155 kts 328°
2026-05-05 16:42 52.10086 21.02374 1480 ft 149 kts 329°
2026-05-05 16:43 52.10994 21.01573 1299 ft 148 kts 329°
2026-05-05 16:43 52.11900 21.00793 1139 ft 147 kts 330°
2026-05-05 16:43 52.12803 21.00016 990 ft 147 kts 329°
2026-05-05 16:43 52.13701 20.99235 812 ft 145 kts 328°
2026-05-05 16:44 52.14585 20.98455 566 ft 144 kts 329°
2026-05-05 16:44 52.15470 20.97678 402 ft 146 kts 330°
2026-05-05 16:44 52.16301 20.96951 352 ft 106 kts 332°
2026-05-05 16:44 52.16684 20.96619 352 ft 20 kts 333°
2026-05-05 16:45 52.16785 20.96545 353 ft 15 kts 355°
2026-05-05 16:45 52.16911 20.96513 353 ft 19 kts 358°
2026-05-05 16:45 52.17043 20.96517 353 ft 19 kts
2026-05-05 16:45 52.17122 20.96674 352 ft 18 kts 62°
2026-05-05 16:46 52.17137 20.96858 352 ft 17 kts 140°
2026-05-05 16:46 52.17043 20.96944 352 ft 9 kts 150°
2026-05-05 16:46 52.17037 20.97035 352 ft 9 kts 71°
2026-05-05 16:46 52.17048 20.97106 352 ft 0 kts 77°